| time (UTC) | temp C | wind direction | speed KPH | gust KPH | rain 1hr cm | rain 24hr cm | rain mn cm | humidity % | barometer mb |
| 20260509111731 | 5 | 102 | 0.0 | 0.0 | 0.00 | 0.03 | 0.00 | 96 | 1006.6 |
| 20260509111505 | 4 | 102 | 0.0 | 0.0 | 0.00 | 0.00 | 0.00 | 96 | 1006.8 |
| 20260509110241 | 4 | 102 | 0.0 | 0.0 | 0.00 | 0.03 | 0.00 | 95 | 1006.7 |
| 20260509110132 | 3 | 102 | 0.0 | 0.0 | 0.00 | 0.00 | 0.00 | 95 | 1006.9 |
| 20260509104738 | 3 | 102 | 0.0 | 0.0 | 0.00 | 0.03 | 0.00 | 95 | 1006.6 |
| 20260509104557 | 3 | 102 | 0.0 | 0.0 | 0.00 | 0.00 | 0.00 | 95 | 1006.8 |
| 20260509103230 | 3 | 102 | 0.0 | 0.0 | 0.00 | 0.03 | 0.00 | 95 | 1006.4 |
| 20260509103046 | 2 | 102 | 0.0 | 0.0 | 0.00 | 0.00 | 0.00 | 95 | 1006.6 |
| 20260509101733 | 2 | 102 | 0.0 | 0.0 | 0.00 | 0.03 | 0.00 | 95 | 1006.5 |
| 20260509101629 | 2 | 102 | 0.0 | 0.0 | 0.00 | 0.00 | 0.00 | 95 | 1006.7 |
| 20260509100233 | 2 | 102 | 0.0 | 0.0 | 0.00 | 0.03 | 0.00 | 95 | 1006.4 |
| 20260509100113 | 2 | 102 | 0.0 | 0.0 | 0.00 | 0.00 | 0.00 | 95 | 1006.6 |
| 20260509094725 | 2 | 102 | 0.0 | 0.0 | 0.00 | 0.03 | 0.00 | 94 | 1006.5 |
| 20260509094600 | 2 | 102 | 0.0 | 0.0 | 0.00 | 0.00 | 0.00 | 94 | 1006.7 |
| 20260509093237 | 2 | 102 | 0.0 | 0.0 | 0.00 | 0.03 | 0.00 | 93 | 1006.5 |
| 20260509093041 | 2 | 102 | 0.0 | 0.0 | 0.00 | 0.00 | 0.00 | 93 | 1006.8 |
| 20260509091756 | 2 | 102 | 0.0 | 0.0 | 0.00 | 0.03 | 0.00 | 93 | 1006.5 |
| 20260509091556 | 2 | 102 | 0.0 | 0.0 | 0.00 | 0.00 | 0.00 | 93 | 1006.7 |
| 20260509090233 | 2 | 102 | 0.0 | 0.0 | 0.00 | 0.03 | 0.00 | 93 | 1006.4 |
| 20260509090051 | 2 | 102 | 0.0 | 0.0 | 0.00 | 0.00 | 0.00 | 93 | 1006.7 |
| 20260509084730 | 2 | 102 | 0.0 | 0.0 | 0.00 | 0.03 | 0.00 | 93 | 1006.6 |
| 20260509084506 | 2 | 102 | 0.0 | 0.0 | 0.00 | 0.00 | 0.00 | 93 | 1006.9 |
| 20260509083226 | 3 | 102 | 0.0 | 0.0 | 0.00 | 0.03 | 0.00 | 94 | 1006.7 |
| 20260509083122 | 2 | 102 | 0.0 | 0.0 | 0.00 | 0.00 | 0.00 | 94 | 1007.1 |
| 20260509081734 | 2 | 102 | 0.0 | 0.0 | 0.00 | 0.03 | 0.00 | 94 | 1006.9 |
| 20260509081608 | 2 | 102 | 0.0 | 0.0 | 0.00 | 0.00 | 0.00 | 94 | 1007.1 |
| 20260509080240 | 2 | 102 | 0.0 | 0.0 | 0.00 | 0.03 | 0.00 | 94 | 1007.0 |
| 20260509080059 | 2 | 102 | 0.0 | 0.0 | 0.00 | 0.00 | 0.00 | 94 | 1007.3 |
| 20260509074735 | 2 | 102 | 0.0 | 0.0 | 0.00 | 0.03 | 0.00 | 94 | 1007.2 |
| 20260509074552 | 2 | 102 | 0.0 | 0.0 | 0.00 | 0.00 | 0.00 | 94 | 1007.5 |
| 20260509073228 | 2 | 102 | 0.0 | 0.0 | 0.00 | 0.03 | 0.00 | 95 | 1007.2 |
| 20260509073008 | 2 | 102 | 0.0 | 0.0 | 0.00 | 0.00 | 0.00 | 95 | 1007.7 |
| 20260509071729 | 2 | 102 | 0.0 | 0.0 | 0.00 | 0.03 | 0.00 | 95 | 1007.4 |
| 20260509071613 | 2 | 102 | 0.0 | 0.0 | 0.00 | 0.00 | 0.00 | 95 | 1007.7 |
| 20260509070248 | 2 | 102 | 0.0 | 0.0 | 0.00 | 0.03 | 0.00 | 94 | 1007.5 |
| 20260509070040 | 2 | 102 | 0.0 | 0.0 | 0.00 | 0.00 | 0.00 | 94 | 1007.7 |
| 20260509064729 | 3 | 102 | 0.0 | 0.0 | 0.00 | 0.03 | 0.00 | 95 | 1007.8 |
| 20260509064605 | 2 | 102 | 0.0 | 0.0 | 0.00 | 0.00 | 0.00 | 95 | 1008.0 |
| 20260509063223 | 3 | 102 | 0.0 | 0.0 | 0.00 | 0.03 | 0.00 | 95 | 1007.9 |
| 20260509063056 | 2 | 102 | 0.0 | 0.0 | 0.00 | 0.00 | 0.00 | 95 | 1008.1 |
| 20260509061753 | 3 | 102 | 0.0 | 0.0 | 0.00 | 0.05 | 0.00 | 95 | 1008.1 |
| 20260509061557 | 2 | 102 | 0.0 | 0.0 | 0.00 | 0.00 | 0.00 | 95 | 1008.3 |
| 20260509060234 | 3 | 102 | 0.0 | 0.0 | 0.00 | 0.05 | 0.00 | 95 | 1008.2 |
| 20260509060105 | 3 | 102 | 0.0 | 0.0 | 0.00 | 0.00 | 0.00 | 95 | 1008.5 |
| 20260509054733 | 3 | 102 | 0.0 | 0.0 | 0.00 | 0.05 | 0.00 | 96 | 1008.3 |
| 20260509054503 | 2 | 102 | 0.0 | 0.0 | 0.00 | 0.00 | 0.00 | 96 | 1008.6 |
| 20260509053236 | 3 | 102 | 0.0 | 0.0 | 0.00 | 0.05 | 0.00 | 95 | 1008.5 |
| 20260509053118 | 2 | 102 | 0.0 | 0.0 | 0.00 | 0.00 | 0.00 | 95 | 1008.6 |
| 20260509051728 | 2 | 102 | 0.0 | 0.0 | 0.00 | 0.05 | 0.00 | 95 | 1008.7 |
| 20260509051606 | 2 | 102 | 0.0 | 0.0 | 0.00 | 0.00 | 0.00 | 95 | 1008.9 |
| 20260509050230 | 2 | 102 | 0.0 | 0.0 | 0.00 | 0.05 | 0.00 | 94 | 1008.7 |
| 20260509050049 | 2 | 102 | 0.0 | 0.0 | 0.00 | 0.00 | 0.00 | 94 | 1008.9 |
| 20260509044731 | 2 | 102 | 0.0 | 0.0 | 0.00 | 0.05 | 0.00 | 93 | 1008.7 |
| 20260509044501 | 2 | 102 | 0.0 | 0.0 | 0.00 | 0.00 | 0.00 | 93 | 1009.0 |
| 20260509043243 | 3 | 102 | 0.0 | 0.0 | 0.00 | 0.05 | 0.00 | 93 | 1009.0 |
| 20260509043053 | 2 | 102 | 0.0 | 0.0 | 0.00 | 0.00 | 0.00 | 93 | 1009.2 |
| 20260509041737 | 3 | 102 | 0.0 | 0.0 | 0.00 | 0.08 | 0.00 | 93 | 1008.9 |
| 20260509041620 | 2 | 102 | 0.0 | 0.0 | 0.00 | 0.00 | 0.00 | 93 | 1009.3 |
| 20260509040240 | 3 | 102 | 0.0 | 0.0 | 0.00 | 0.08 | 0.00 | 93 | 1009.3 |
| 20260509040011 | 3 | 102 | 0.0 | 0.0 | 0.00 | 0.00 | 0.00 | 93 | 1009.4 |
| 20260509034750 | 3 | 102 | 0.0 | 0.0 | 0.00 | 0.08 | 0.00 | 92 | 1009.3 |
| 20260509034515 | 3 | 102 | 0.0 | 0.0 | 0.00 | 0.00 | 0.00 | 92 | 1009.6 |
| 20260509033242 | 3 | 102 | 0.0 | 0.0 | 0.00 | 0.08 | 0.05 | 91 | 1009.3 |
| 20260509033126 | 3 | 102 | 0.0 | 0.0 | 0.00 | 0.00 | 0.05 | 91 | 1009.6 |
| 20260509031725 | 3 | 102 | 0.0 | 0.0 | 0.00 | 0.13 | 0.05 | 90 | 1009.4 |
| 20260509031549 | 3 | 102 | 0.0 | 0.0 | 0.00 | 0.00 | 0.05 | 90 | 1009.5 |
| 20260509030253 | 4 | 102 | 0.0 | 0.0 | 0.00 | 0.13 | 0.05 | 89 | 1009.4 |
| 20260509030110 | 3 | 102 | 0.0 | 0.0 | 0.00 | 0.00 | 0.05 | 89 | 1009.8 |
| 20260509024738 | 4 | 102 | 0.0 | 0.0 | 0.00 | 0.13 | 0.05 | 89 | 1009.5 |
| 20260509024606 | 4 | 102 | 0.0 | 0.0 | 0.00 | 0.00 | 0.05 | 89 | 1009.7 |
| 20260509023236 | 4 | 102 | 0.0 | 0.0 | 0.00 | 0.13 | 0.05 | 88 | 1009.4 |
| 20260509023041 | 4 | 102 | 0.0 | 0.0 | 0.00 | 0.00 | 0.05 | 88 | 1009.6 |
| 20260509021732 | 5 | 102 | 0.0 | 0.0 | 0.00 | 0.28 | 0.05 | 87 | 1009.4 |
| 20260509021617 | 4 | 102 | 0.0 | 0.0 | 0.00 | 0.00 | 0.05 | 87 | 1009.7 |
| 20260509020228 | 5 | 102 | 0.0 | 0.0 | 0.00 | 0.28 | 0.05 | 85 | 1009.5 |
| 20260509020113 | 5 | 102 | 0.0 | 0.0 | 0.00 | 0.00 | 0.05 | 85 | 1009.7 |
| 20260509014733 | 5 | 102 | 0.0 | 0.0 | 0.00 | 0.28 | 0.05 | 82 | 1009.4 |
| 20260509014548 | 5 | 102 | 0.0 | 0.0 | 0.00 | 0.00 | 0.05 | 82 | 1009.7 |
| 20260509013226 | 6 | 102 | 0.0 | 0.0 | 0.00 | 0.28 | 0.05 | 79 | 1009.5 |
| 20260509013121 | 6 | 102 | 0.0 | 0.0 | 0.00 | 0.00 | 0.05 | 78 | 1009.7 |
| 20260509011734 | 7 | 102 | 0.0 | 0.0 | 0.00 | 0.33 | 0.05 | 76 | 1009.5 |
| 20260509011611 | 6 | 102 | 0.0 | 0.0 | 0.00 | 0.00 | 0.05 | 76 | 1009.7 |
| 20260509010235 | 7 | 102 | 0.0 | 1.6 | 0.00 | 0.33 | 0.05 | 73 | 1009.1 |
| 20260509004733 | 8 | 102 | 0.0 | 0.0 | 0.00 | 0.33 | 0.05 | 71 | 1009.1 |
| 20260509004521 | 7 | 102 | 0.0 | 0.0 | 0.00 | 0.00 | 0.05 | 71 | 1009.2 |
| 20260509003227 | 8 | 102 | 0.0 | 1.6 | 0.00 | 0.33 | 0.05 | 69 | 1008.8 |
| 20260509003114 | 8 | 102 | 0.0 | 0.0 | 0.00 | 0.00 | 0.05 | 69 | 1009.0 |
| 20260509001738 | 9 | 102 | 0.0 | 4.8 | 0.00 | 0.33 | 0.05 | 69 | 1008.9 |
| 20260509001540 | 8 | 102 | 0.0 | 0.0 | 0.00 | 0.00 | 0.05 | 70 | 1009.1 |
| 20260509000219 | 9 | 102 | 1.6 | 3.2 | 0.00 | 0.33 | 0.05 | 69 | 1008.7 |
| 20260509000009 | 9 | 102 | 0.0 | 0.0 | 0.00 | 0.00 | 0.05 | 69 | 1009.0 |
| 20260508234743 | 9 | 102 | 0.0 | 4.8 | 0.00 | 0.33 | 0.05 | 69 | 1008.8 |
| 20260508234545 | 9 | 102 | 1.6 | 0.0 | 0.00 | 0.00 | 0.05 | 69 | 1009.0 |
| 20260508233232 | 10 | 101 | 1.6 | 4.8 | 0.00 | 0.33 | 0.05 | 70 | 1008.8 |
| 20260508233130 | 9 | 101 | 1.6 | 0.0 | 0.00 | 0.00 | 0.05 | 70 | 1008.9 |
| 20260508231722 | 10 | 102 | 1.6 | 8.0 | 0.00 | 0.33 | 0.05 | 69 | 1008.6 |
| 20260508231606 | 10 | 102 | 1.6 | 0.0 | 0.00 | 0.00 | 0.05 | 68 | 1008.7 |
| 20260508230254 | 11 | 96 | 3.2 | 4.8 | 0.00 | 0.33 | 0.05 | 66 | 1008.5 |
| 20260508230014 | 11 | 96 | 1.6 | 0.0 | 0.00 | 0.00 | 0.05 | 65 | 1008.8 |
| 20260508224726 | 11 | 96 | 3.2 | 9.7 | 0.00 | 0.33 | 0.05 | 65 | 1008.6 |
| 20260508224517 | 11 | 98 | 3.2 | 0.0 | 0.00 | 0.00 | 0.05 | 64 | 1008.8 |
| 20260508223247 | 12 | 97 | 0.0 | 6.4 | 0.00 | 0.33 | 0.05 | 64 | 1008.6 |
| 20260508223056 | 11 | 97 | 1.6 | 0.0 | 0.00 | 0.00 | 0.05 | 64 | 1008.7 |
| 20260508221739 | 12 | 99 | 6.4 | 9.7 | 0.00 | 0.33 | 0.05 | 63 | 1008.7 |
| 20260508221542 | 12 | 78 | 1.6 | 0.0 | 0.00 | 0.00 | 0.05 | 62 | 1008.8 |
| 20260508220238 | 12 | 77 | 1.6 | 6.4 | 0.00 | 0.33 | 0.05 | 58 | 1008.8 |
| 20260508220144 | 12 | 77 | 3.2 | 0.0 | 0.00 | 0.00 | 0.05 | 58 | 1009.0 |
| 20260508214733 | 13 | 51 | 0.0 | 3.2 | 0.00 | 0.33 | 0.05 | 61 | 1008.8 |
| 20260508214556 | 12 | 51 | 0.0 | 0.0 | 0.00 | 0.00 | 0.05 | 59 | 1009.0 |
| 20260508213225 | 13 | 51 | 1.6 | 9.7 | 0.00 | 0.33 | 0.05 | 60 | 1009.1 |
| 20260508213014 | 13 | 51 | 3.2 | 0.0 | 0.00 | 0.00 | 0.05 | 61 | 1009.2 |
| 20260508211758 | 13 | 53 | 1.6 | 8.0 | 0.00 | 0.33 | 0.05 | 59 | 1009.0 |
| 20260508211600 | 12 | 53 | 1.6 | 0.0 | 0.00 | 0.00 | 0.05 | 59 | 1009.2 |
| 20260508210234 | 12 | 37 | 3.2 | 9.7 | 0.00 | 0.33 | 0.05 | 63 | 1009.1 |
| 20260508210052 | 12 | 34 | 4.8 | 0.0 | 0.00 | 0.00 | 0.05 | 63 | 1009.3 |
| 20260508204739 | 12 | 311 | 3.2 | 9.7 | 0.00 | 0.33 | 0.05 | 61 | 1009.1 |
| 20260508204538 | 12 | 311 | 4.8 | 0.0 | 0.00 | 0.00 | 0.05 | 61 | 1009.5 |
| 20260508203227 | 13 | 315 | 9.7 | 14.5 | 0.00 | 0.33 | 0.05 | 64 | 1009.3 |
| 20260508203109 | 13 | 360 | 6.4 | 0.0 | 0.00 | 0.00 | 0.05 | 64 | 1009.5 |
| 20260508201746 | 12 | 307 | 0.0 | 8.0 | 0.00 | 0.33 | 0.05 | 60 | 1009.4 |
| 20260508201617 | 12 | 307 | 1.6 | 0.0 | 0.00 | 0.00 | 0.05 | 60 | 1009.7 |
| 20260508200235 | 12 | 320 | 1.6 | 14.5 | 0.00 | 0.33 | 0.05 | 67 | 1009.5 |
| 20260508194735 | 12 | 313 | 8.0 | 19.3 | 0.00 | 0.33 | 0.05 | 68 | 1009.7 |
| 20260508194551 | 12 | 5 | 8.0 | 0.0 | 0.00 | 0.00 | 0.05 | 66 | 1010.1 |
| 20260508193226 | 13 | 309 | 8.0 | 19.3 | 0.00 | 0.33 | 0.05 | 66 | 1009.9 |
| 20260508193122 | 13 | 333 | 6.4 | 0.0 | 0.00 | 0.00 | 0.05 | 66 | 1010.3 |
| 20260508191740 | 13 | 327 | 1.6 | 11.3 | 0.00 | 0.33 | 0.05 | 67 | 1010.0 |
| 20260508191603 | 12 | 326 | 4.8 | 0.0 | 0.00 | 0.00 | 0.05 | 67 | 1010.3 |
| 20260508190235 | 13 | 355 | 4.8 | 14.5 | 0.00 | 0.33 | 0.05 | 71 | 1010.3 |
| 20260508184729 | 12 | 355 | 3.2 | 11.3 | 0.00 | 0.33 | 0.05 | 70 | 1010.1 |
| 20260508184504 | 12 | 25 | 6.4 | 0.0 | 0.00 | 0.00 | 0.05 | 68 | 1010.4 |
| 20260508183232 | 13 | 319 | 9.7 | 16.1 | 0.00 | 0.33 | 0.05 | 69 | 1010.0 |
| 20260508183119 | 12 | 317 | 6.4 | 0.0 | 0.00 | 0.00 | 0.05 | 68 | 1010.3 |
| 20260508181736 | 13 | 32 | 9.7 | 14.5 | 0.00 | 0.33 | 0.05 | 66 | 1010.1 |
| 20260508181605 | 12 | 36 | 9.7 | 0.0 | 0.00 | 0.00 | 0.05 | 67 | 1010.3 |
| 20260508180229 | 12 | 331 | 8.0 | 11.3 | 0.00 | 0.33 | 0.05 | 73 | 1010.0 |
| 20260508180106 | 12 | 317 | 1.6 | 0.0 | 0.00 | 0.00 | 0.05 | 71 | 1010.1 |
| 20260508174732 | 11 | 281 | 6.4 | 20.9 | 0.00 | 0.33 | 0.05 | 71 | 1010.3 |
| 20260508174543 | 11 | 315 | 6.4 | 0.0 | 0.00 | 0.00 | 0.05 | 65 | 1010.7 |
| 20260508173224 | 11 | 265 | 1.6 | 17.7 | 0.00 | 0.33 | 0.05 | 63 | 1010.4 |
| 20260508173116 | 11 | 347 | 6.4 | 0.0 | 0.00 | 0.00 | 0.05 | 61 | 1010.6 |
| 20260508171732 | 11 | 239 | 8.0 | 14.5 | 0.00 | 0.33 | 0.05 | 69 | 1010.5 |
| 20260508171554 | 11 | 208 | 3.2 | 0.0 | 0.00 | 0.00 | 0.05 | 71 | 1010.8 |
| 20260508170238 | 10 | 245 | 1.6 | 8.0 | 0.00 | 0.33 | 0.05 | 70 | 1010.6 |
| 20260508170118 | 10 | 246 | 3.2 | 0.0 | 0.00 | 0.00 | 0.05 | 68 | 1010.9 |
| 20260508164718 | 10 | 252 | 1.6 | 14.5 | 0.00 | 0.33 | 0.05 | 67 | 1010.8 |
| 20260508164607 | 10 | 221 | 3.2 | 0.0 | 0.00 | 0.00 | 0.05 | 65 | 1011.0 |
| 20260508163236 | 10 | 250 | 0.0 | 11.3 | 0.00 | 0.33 | 0.05 | 72 | 1011.0 |
| 20260508163106 | 9 | 248 | 4.8 | 0.0 | 0.00 | 0.00 | 0.05 | 71 | 1011.3 |
| 20260508161737 | 9 | 264 | 6.4 | 14.5 | 0.00 | 0.33 | 0.05 | 74 | 1011.2 |
| 20260508161555 | 9 | 273 | 4.8 | 0.0 | 0.00 | 0.00 | 0.05 | 75 | 1011.4 |
| 20260508160240 | 8 | 284 | 3.2 | 9.7 | 0.00 | 0.33 | 0.05 | 76 | 1011.2 |
| 20260508160006 | 8 | 286 | 1.6 | 0.0 | 0.00 | 0.00 | 0.05 | 76 | 1011.7 |
| 20260508154735 | 8 | 267 | 0.0 | 9.7 | 0.00 | 0.33 | 0.05 | 78 | 1011.5 |
| 20260508154606 | 8 | 267 | 3.2 | 0.0 | 0.00 | 0.00 | 0.05 | 79 | 1011.7 |
| 20260508153235 | 8 | 278 | 6.4 | 11.3 | 0.00 | 0.33 | 0.05 | 79 | 1011.4 |
| 20260508153036 | 8 | 229 | 3.2 | 0.0 | 0.00 | 0.00 | 0.05 | 80 | 1011.6 |
| 20260508151739 | 7 | 229 | 3.2 | 12.9 | 0.00 | 0.33 | 0.05 | 81 | 1011.2 |
| 20260508151617 | 7 | 230 | 3.2 | 0.0 | 0.00 | 0.00 | 0.05 | 82 | 1011.4 |
| 20260508150245 | 7 | 248 | 0.0 | 11.3 | 0.00 | 0.33 | 0.05 | 87 | 1011.2 |
| 20260508150049 | 7 | 248 | 4.8 | 0.0 | 0.00 | 0.00 | 0.05 | 87 | 1011.4 |
| 20260508144737 | 7 | 226 | 4.8 | 14.5 | 0.00 | 0.33 | 0.05 | 90 | 1011.2 |
| 20260508144508 | 7 | 185 | 6.4 | 0.0 | 0.00 | 0.00 | 0.05 | 90 | 1011.5 |
| 20260508143233 | 7 | 189 | 1.6 | 11.3 | 0.00 | 0.33 | 0.05 | 91 | 1011.4 |
| 20260508143118 | 6 | 205 | 4.8 | 0.0 | 0.00 | 0.00 | 0.05 | 91 | 1011.7 |
| 20260508141723 | 6 | 200 | 8.0 | 16.1 | 0.00 | 0.33 | 0.05 | 92 | 1011.2 |
| 20260508141557 | 6 | 190 | 4.8 | 0.0 | 0.00 | 0.00 | 0.05 | 92 | 1011.4 |
| 20260508140250 | 6 | 190 | 4.8 | 16.1 | 0.00 | 0.33 | 0.05 | 93 | 1011.0 |
| 20260508140142 | 6 | 190 | 4.8 | 0.0 | 0.00 | 0.00 | 0.05 | 93 | 1011.3 |
| 20260508134719 | 6 | 229 | 1.6 | 12.9 | 0.00 | 0.33 | 0.05 | 96 | 1010.9 |
| 20260508134554 | 5 | 230 | 4.8 | 0.0 | 0.00 | 0.00 | 0.05 | 96 | 1011.1 |
| 20260508133231 | 4 | 207 | 3.2 | 8.0 | 0.00 | 0.33 | 0.05 | 97 | 1011.0 |
| 20260508133001 | 4 | 208 | 1.6 | 0.0 | 0.00 | 0.00 | 0.05 | 96 | 1011.5 |
| 20260508131722 | 3 | 209 | 1.6 | 9.7 | 0.03 | 0.33 | 0.05 | 96 | 1011.4 |
| 20260508131606 | 3 | 208 | 3.2 | 0.0 | 0.00 | 0.00 | 0.05 | 95 | 1011.7 |
| 20260508130230 | 3 | 257 | 11.3 | 19.3 | 0.03 | 0.33 | 0.05 | 95 | 1011.5 |
| 20260508130105 | 3 | 240 | 8.0 | 0.0 | 0.00 | 0.00 | 0.05 | 95 | 1011.8 |
| 20260508124745 | 5 | 224 | 1.6 | 17.7 | 0.03 | 0.33 | 0.05 | 97 | 1011.2 |
| 20260508124623 | 4 | 224 | 6.4 | 0.0 | 0.00 | 0.00 | 0.05 | 97 | 1011.5 |
| 20260508123230 | 5 | 224 | 4.8 | 14.5 | 0.03 | 0.33 | 0.05 | 98 | 1011.1 |
| 20260508123106 | 4 | 234 | 4.8 | 0.0 | 0.00 | 0.00 | 0.05 | 98 | 1011.3 |
| 20260508121734 | 5 | 234 | 4.8 | 8.0 | 0.00 | 0.30 | 0.03 | 99 | 1011.1 |
| 20260508121556 | 5 | 234 | 1.6 | 0.0 | 0.00 | 0.00 | 0.03 | 99 | 1011.3 |
| 20260508120235 | 5 | 234 | 3.2 | 11.3 | 0.00 | 0.30 | 0.03 | 99 | 1011.0 |
| 20260508120047 | 5 | 232 | 3.2 | 0.0 | 0.00 | 0.00 | 0.03 | 99 | 1011.2 |
| 20260508114730 | 5 | 207 | 3.2 | 6.4 | 0.00 | 0.30 | 0.03 | 99 | 1010.8 |
| 20260508114620 | 5 | 206 | 0.0 | 0.0 | 0.00 | 0.00 | 0.03 | 99 | 1011.0 |
| 20260508113223 | 5 | 205 | 0.0 | 0.0 | 0.00 | 0.30 | 0.03 | 99 | 1010.4 |
| 20260508113107 | 4 | 205 | 0.0 | 0.0 | 0.00 | 0.00 | 0.03 | 99 | 1010.5 |